Tracking 25703 objects as of 3-Jul-2022
HD Live streaming from Space Station
objects crossing your sky now

GALILEO 20 (2C6)

Track GALILEO 20 (2C6) now!
GALILEO 20 (2C6) is classified as:


NORAD ID: 43056
Int'l Code: 2017-079B
Perigee: 23,215.7 km
Apogee: 23,242.7 km
Inclination: 55.7 °
Period: 844.7 minutes
Semi major axis: 29600 km
RCS: Unknown
Launch date: December 12, 2017
Source: European Space Agency (ESA)
Launch site: FRENCH GUIANA (FRGUI)
aabbcc
Your satellite tracking list
Your tracking list is empty




NASA's NSSDC Master Catalog

Two Line Element Set (TLE):
1 43056U 17079B   22182.79400021  .00000016  00000-0  00000-0 0  9997
2 43056  55.7338 261.3308 0004559 270.4715  89.5619  1.70474834 28346
Source of the keplerian elements: AFSPC